PA1CD-13 Weather Reports


time (UTC)temp
C
wind
direction
speed
KPH
gust
KPH
rain 1hr
cm
rain 24hr
cm
rain mn
cm
humidity
%
barometer
mb
20260507064903 12 69 0.0 0.0 0.00 0.00 0.00 21 1014.3
20260507064703 11 0 0.0 0.0 0.00 0.00 0.00 19 1014.4
20260507064505 11 75 0.0 0.0 0.00 0.00 0.00 9 1014.4
20260507064304 11 62 0.0 1.6 0.00 0.00 0.00 9 1014.3
20260507064103 11 63 0.0 1.6 0.00 0.00 0.00 9 1014.3
20260507063904 11 103 0.0 1.6 0.00 0.00 0.00 7 1014.4
20260507063704 11 78 0.0 1.6 0.00 0.00 0.00 4 1014.4
20260507063505 11 69 0.0 1.6 0.00 0.00 0.00 3 1014.3
20260507063308 11 0 0.0 0.0 0.00 0.00 0.00 1 1014.4
20260507063104 11 0 0.0 0.0 0.00 0.00 0.00 1 1014.3
20260507062904 11 75 0.0 0.0 0.00 0.00 0.00 1 1014.4
20260507062717 11 62 0.0 0.0 0.00 0.00 0.00 1 1014.3
20260507062504 11 69 0.0 0.0 0.00 0.00 0.00 1 1014.3
20260507062306 10 59 0.0 0.0 0.00 0.00 0.00 1 1014.2
20260507062103 10 69 0.0 0.0 0.00 0.00 0.00 1 1014.2
20260507061904 10 68 0.0 0.0 0.00 0.00 0.00 1 1014.3
20260507061705 10 61 0.0 0.0 0.00 0.00 0.00 1 1014.3
20260507061505 10 69 0.0 0.0 0.00 0.00 0.00 1 1014.2
20260507061304 10 71 0.0 0.0 0.00 0.00 0.00 1 1014.2
20260507061104 10 0 0.0 0.0 0.00 0.00 0.00 1 1014.1
20260507060904 9 0 0.0 0.0 0.00 0.00 0.00 1 1014.2
20260507060704 9 73 0.0 0.0 0.00 0.00 0.00 1 1014.2
20260507060506 9 80 0.0 0.0 0.00 0.00 0.00 1 1014.1
20260507060303 9 78 0.0 0.0 0.00 0.00 0.00 1 1014.1
20260507060103 9 78 0.0 0.0 0.00 0.00 0.00 1 1014.2
20260507055903 8 76 0.0 0.0 0.00 0.00 0.00 1 1014.1
20260507055702 8 76 0.0 0.0 0.00 0.00 0.00 1 1014.0
20260507055503 8 78 0.0 0.0 0.00 0.00 0.00 1 1014.0
20260507055306 8 76 0.0 0.0 0.00 0.00 0.00 1 1014.1
20260507055104 8 76 0.0 0.0 0.00 0.00 0.00 1 1014.0
20260507054902 8 76 0.0 0.0 0.00 0.00 0.00 1 1014.0
20260507054702 8 76 0.0 0.0 0.00 0.00 0.00 1 1013.9
20260507054502 7 0 0.0 0.0 0.00 0.00 0.00 1 1014.0
20260507054303 7 0 0.0 0.0 0.00 0.00 0.00 1 1014.0
20260507054102 7 0 0.0 0.0 0.00 0.00 0.00 1 1014.0
20260507053902 7 0 0.0 0.0 0.00 0.00 0.00 1 1013.8
20260507053702 7 0 0.0 0.0 0.00 0.00 0.00 1 1013.9
20260507053504 7 0 0.0 0.0 0.00 0.00 0.00 1 1013.9
20260507053302 7 76 0.0 0.0 0.00 0.00 0.00 1 1013.9
20260507053102 7 0 0.0 0.0 0.00 0.00 0.00 1 1013.8
20260507052903 7 76 0.0 0.0 0.00 0.00 0.00 1 1013.8
20260507052702 7 76 0.0 0.0 0.00 0.00 0.00 1 1013.8
20260507052504 6 76 0.0 0.0 0.00 0.00 0.00 1 1013.7
20260507052306 6 76 0.0 0.0 0.00 0.00 0.00 1 1013.7
20260507052102 6 76 0.0 0.0 0.00 0.00 0.00 1 1013.7
20260507051903 6 0 0.0 0.0 0.00 0.00 0.00 1 1013.7
20260507051704 6 76 0.0 0.0 0.00 0.00 0.00 1 1013.6
20260507051504 6 76 0.0 0.0 0.00 0.00 0.00 1 1013.6
20260507051305 6 76 0.0 0.0 0.00 0.00 0.00 1 1013.6
20260507051103 6 0 0.0 0.0 0.00 0.00 0.00 1 1013.6
20260507050904 6 76 0.0 0.0 0.00 0.00 0.00 1 1013.5
20260507050703 6 76 0.0 0.0 0.00 0.00 0.00 1 1013.5
20260507050505 6 76 0.0 0.0 0.00 0.00 0.00 1 1013.5
20260507050304 6 76 0.0 0.0 0.00 0.00 0.00 1 1013.4
20260507050103 6 76 0.0 0.0 0.00 0.00 0.00 1 1013.4
20260507045903 6 76 0.0 0.0 0.00 0.00 0.00 1 1013.5
20260507045704 5 0 0.0 0.0 0.00 0.00 0.00 1 1013.4
20260507045505 5 76 0.0 0.0 0.00 0.00 0.00 1 1013.5
20260507045306 5 76 0.0 0.0 0.00 0.00 0.00 1 1013.5
20260507045104 5 76 0.0 0.0 0.00 0.00 0.00 1 1013.5
20260507044904 5 76 0.0 0.0 0.00 0.00 0.00 1 1013.4
20260507044704 5 76 0.0 0.0 0.00 0.00 0.00 1 1013.4
20260507044506 5 76 0.0 0.0 0.00 0.00 0.00 1 1013.4
20260507044304 5 76 0.0 0.0 0.00 0.00 0.00 1 1013.3
20260507044103 5 76 0.0 0.0 0.00 0.00 0.00 1 1013.4
20260507043904 5 76 0.0 0.0 0.00 0.00 0.00 1 1013.4
20260507043703 5 76 0.0 0.0 0.00 0.00 0.00 1 1013.3
20260507043503 5 76 0.0 0.0 0.00 0.00 0.00 1 1013.4
20260507043304 5 78 0.0 0.0 0.00 0.00 0.00 1 1013.4
20260507043103 5 76 0.0 0.0 0.00 0.00 0.00 1 1013.4
20260507042905 5 76 0.0 0.0 0.00 0.00 0.00 1 1013.3
20260507042703 5 76 0.0 0.0 0.00 0.00 0.00 1 1013.3
20260507042503 5 0 0.0 0.0 0.00 0.00 0.00 1 1013.2
20260507042306 5 0 0.0 0.0 0.00 0.00 0.00 1 1013.3
20260507042104 5 0 0.0 0.0 0.00 0.00 0.00 1 1013.3
20260507041903 5 0 0.0 0.0 0.00 0.00 0.00 1 1013.2
20260507041704 5 0 0.0 0.0 0.00 0.00 0.00 1 1013.2
20260507041503 5 0 0.0 0.0 0.00 0.00 0.00 1 1013.1
20260507041304 5 0 0.0 0.0 0.00 0.00 0.00 1 1013.2
20260507041103 5 76 0.0 0.0 0.00 0.00 0.00 1 1013.2
20260507040905 5 76 0.0 0.0 0.00 0.00 0.00 1 1013.1
20260507040702 5 76 0.0 0.0 0.00 0.00 0.00 1 1013.2
20260507040503 5 76 0.0 0.0 0.00 0.00 0.00 1 1013.2
20260507040304 5 76 0.0 0.0 0.00 0.00 0.00 1 1013.1
20260507040104 5 76 0.0 0.0 0.00 0.00 0.00 1 1013.2
20260507035904 5 76 0.0 0.0 0.00 0.00 0.00 1 1013.1
20260507035704 5 76 0.0 0.0 0.00 0.00 0.00 1 1013.1
20260507035504 5 76 0.0 0.0 0.00 0.00 0.00 1 1013.1
20260507035306 5 76 0.0 0.0 0.00 0.00 0.00 1 1013.1
20260507035104 5 76 0.0 0.0 0.00 0.00 0.00 1 1013.1
20260507034903 5 76 0.0 0.0 0.00 0.00 0.00 1 1013.2
20260507034704 5 76 0.0 0.0 0.00 0.00 0.00 1 1013.2
20260507034505 5 76 0.0 0.0 0.00 0.00 0.00 1 1013.1
20260507034304 5 76 0.0 0.0 0.00 0.00 0.00 1 1013.1
20260507034103 5 76 0.0 0.0 0.00 0.00 0.00 1 1013.0
20260507033904 5 76 0.0 0.0 0.00 0.00 0.00 1 1013.0
20260507033703 5 76 0.0 0.0 0.00 0.00 0.00 1 1013.0
20260507033505 5 76 0.0 0.0 0.00 0.00 0.00 1 1013.0
20260507033303 5 76 0.0 0.0 0.00 0.00 0.00 1 1013.0
20260507033105 5 76 0.0 0.0 0.00 0.00 0.00 1 1013.0
20260507032904 5 76 0.0 0.0 0.00 0.00 0.00 1 1013.0
20260507032703 5 76 0.0 0.0 0.00 0.00 0.00 1 1013.0
20260507032504 5 76 0.0 0.0 0.00 0.00 0.00 1 1013.0
20260507032305 5 76 0.0 0.0 0.00 0.00 0.00 1 1013.0
20260507032104 5 76 0.0 0.0 0.00 0.00 0.00 1 1012.9
20260507031903 5 76 0.0 0.0 0.00 0.00 0.00 1 1013.0
20260507031705 5 76 0.0 0.0 0.00 0.00 0.00 1 1013.0
20260507031504 5 76 0.0 0.0 0.00 0.00 0.00 1 1013.0
20260507031304 5 76 0.0 0.0 0.00 0.00 0.00 1 1012.9
20260507031104 5 76 0.0 0.0 0.00 0.00 0.00 1 1012.9
20260507030905 5 76 0.0 0.0 0.00 0.00 0.00 1 1012.8
20260507030706 5 76 0.0 0.0 0.00 0.00 0.00 1 1012.9
20260507030505 5 76 0.0 0.0 0.00 0.00 0.00 1 1012.8
20260507030305 5 76 0.0 0.0 0.00 0.00 0.00 1 1012.9
20260507030105 5 76 0.0 0.0 0.00 0.00 0.00 1 1012.8
20260507025905 5 76 0.0 0.0 0.00 0.00 0.00 1 1012.8
20260507025705 5 76 0.0 0.0 0.00 0.00 0.00 1 1012.8
20260507025506 5 76 0.0 0.0 0.00 0.00 0.00 1 1012.8
20260507025306 5 76 0.0 0.0 0.00 0.00 0.00 1 1012.9
20260507025105 5 76 0.0 0.0 0.00 0.00 0.00 1 1012.9
20260507024905 5 76 0.0 0.0 0.00 0.00 0.00 1 1012.8
20260507024705 5 76 0.0 0.0 0.00 0.00 0.00 1 1012.9
20260507024506 5 76 0.0 0.0 0.00 0.00 0.00 1 1012.9
20260507024306 5 76 0.0 0.0 0.00 0.00 0.00 1 1012.8
20260507024105 5 76 0.0 0.0 0.00 0.00 0.00 1 1012.8
20260507023906 5 76 0.0 0.0 0.00 0.00 0.00 1 1012.8
20260507023705 5 76 0.0 0.0 0.00 0.00 0.00 1 1012.8
20260507023508 5 76 0.0 0.0 0.00 0.00 0.00 1 1012.8
20260507023305 5 76 0.0 0.0 0.00 0.00 0.00 1 1012.8
20260507023104 5 76 0.0 0.0 0.00 0.00 0.00 1 1012.8
20260507022906 5 76 0.0 0.0 0.00 0.00 0.00 1 1012.7
20260507022705 5 76 0.0 0.0 0.00 0.00 0.00 1 1012.8
20260507022507 5 76 0.0 0.0 0.00 0.00 0.00 1 1012.7
20260507022306 5 76 0.0 0.0 0.00 0.00 0.00 1 1012.7
20260507022105 5 76 0.0 0.0 0.00 0.00 0.00 1 1012.7
20260507021905 5 76 0.0 0.0 0.00 0.00 0.00 1 1012.7
20260507021706 5 76 0.0 0.0 0.00 0.00 0.00 1 1012.7
20260507021507 5 76 0.0 0.0 0.00 0.00 0.00 1 1012.5
20260507021305 5 76 0.0 0.0 0.00 0.00 0.00 1 1012.6
20260507021106 5 76 0.0 0.0 0.00 0.00 0.00 1 1012.5
20260507020905 5 76 0.0 0.0 0.00 0.00 0.00 1 1012.5
20260507020705 5 76 0.0 0.0 0.00 0.00 0.00 1 1012.5
20260507020506 5 76 0.0 0.0 0.00 0.00 0.00 1 1012.5
20260507020305 5 76 0.0 0.0 0.00 0.00 0.00 1 1012.6
20260507020105 5 76 0.0 0.0 0.00 0.00 0.00 1 1012.5
20260507015905 5 76 0.0 0.0 0.00 0.00 0.00 1 1012.5
20260507015705 5 76 0.0 0.0 0.00 0.00 0.00 1 1012.5
20260507015506 5 76 0.0 0.0 0.00 0.00 0.00 1 1012.5
20260507015306 5 76 0.0 0.0 0.00 0.00 0.00 1 1012.5
20260507015105 5 76 0.0 0.0 0.00 0.00 0.00 1 1012.5
20260507014905 5 76 0.0 0.0 0.00 0.00 0.00 1 1012.5
20260507014707 5 76 0.0 0.0 0.00 0.00 0.00 1 1012.5
20260507014506 5 76 0.0 0.0 0.00 0.00 0.00 1 1012.4
20260507014305 5 76 0.0 0.0 0.00 0.00 0.00 1 1012.4
20260507014105 5 76 0.0 0.0 0.00 0.00 0.00 1 1012.4
20260507013905 5 76 0.0 0.0 0.00 0.00 0.00 1 1012.4
20260507013705 6 76 0.0 0.0 0.00 0.00 0.00 1 1012.4
20260507013506 6 0 0.0 0.0 0.00 0.00 0.00 1 1012.4
20260507013305 6 76 0.0 0.0 0.00 0.00 0.00 1 1012.5
20260507013106 6 76 0.0 0.0 0.00 0.00 0.00 1 1012.4
20260507012902 6 76 0.0 0.0 0.00 0.00 0.00 1 1012.4
20260507012702 6 76 0.0 0.0 0.00 0.00 0.00 1 1012.4
20260507012502 6 76 0.0 0.0 0.00 0.00 0.00 1 1012.4
20260507012306 6 76 0.0 0.0 0.00 0.00 0.00 1 1012.4
20260507012103 6 76 0.0 0.0 0.00 0.00 0.00 1 1012.4
20260507011902 6 76 0.0 0.0 0.00 0.00 0.00 1 1012.4
20260507011702 6 76 0.0 0.0 0.00 0.00 0.00 1 1012.4
20260507011503 6 76 0.0 0.0 0.00 0.00 0.00 1 1012.4
20260507011302 6 76 0.0 0.0 0.00 0.00 0.00 1 1012.4
20260507011102 6 76 0.0 0.0 0.00 0.00 0.00 1 1012.4
20260507010902 6 76 0.0 0.0 0.00 0.00 0.00 1 1012.5
20260507010702 6 76 0.0 0.0 0.00 0.00 0.00 1 1012.4
20260507010504 6 76 0.0 0.0 0.00 0.00 0.00 1 1012.5
20260507010302 6 76 0.0 0.0 0.00 0.00 0.00 1 1012.4
20260507005903 6 76 0.0 0.0 0.00 0.00 0.00 1 1012.4
20260507005702 6 76 0.0 0.0 0.00 0.00 0.00 1 1012.4
20260507005502 6 76 0.0 0.0 0.00 0.00 0.00 1 1012.4
20260507005305 6 76 0.0 0.0 0.00 0.00 0.00 1 1012.4
20260507005102 6 76 0.0 0.0 0.00 0.00 0.00 1 1012.4
20260507004903 6 76 0.0 0.0 0.00 0.00 0.00 1 1012.4
20260507004702 6 76 0.0 0.0 0.00 0.00 0.00 1 1012.3
20260507004502 6 76 0.0 0.0 0.00 0.00 0.00 1 1012.3
20260507004302 6 76 0.0 0.0 0.00 0.00 0.00 1 1012.4
20260507004102 6 76 0.0 0.0 0.00 0.00 0.00 1 1012.4
20260507003903 6 76 0.0 0.0 0.00 0.00 0.00 1 1012.4
20260507003703 6 76 0.0 0.0 0.00 0.00 0.00 1 1012.4
20260507003503 6 76 0.0 0.0 0.00 0.00 0.00 1 1012.4
20260507003302 6 76 0.0 0.0 0.00 0.00 0.00 1 1012.4
20260507003102 6 76 0.0 0.0 0.00 0.00 0.00 1 1012.4
20260507002901 6 76 0.0 0.0 0.00 0.00 0.00 1 1012.4
20260507002703 6 76 0.0 0.0 0.00 0.00 0.00 1 1012.4
20260507002504 6 76 0.0 0.0 0.00 0.00 0.00 1 1012.4
20260507002305 6 76 0.0 0.0 0.00 0.00 0.00 1 1012.3
20260507002103 6 76 0.0 0.0 0.00 0.00 0.00 1 1012.4
20260507001904 6 76 0.0 0.0 0.00 0.00 0.00 1 1012.4
20260507001704 6 76 0.0 0.0 0.00 0.00 0.00 1 1012.4
20260507001504 6 76 0.0 0.0 0.00 0.00 0.00 1 1012.4
20260507001303 6 76 0.0 0.0 0.00 0.00 0.00 1 1012.4
20260507001104 6 76 0.0 0.0 0.00 0.00 0.00 1 1012.3
20260507000903 6 76 0.0 0.0 0.00 0.00 0.00 1 1012.4
20260507000703 6 76 0.0 0.0 0.00 0.00 0.00 1 1012.4
20260507000503 6 76 0.0 0.0 0.00 0.00 0.00 1 1012.4
20260507000306 6 76 0.0 0.0 0.00 0.00 0.00 1 1012.4
20260506235905 6 76 0.0 0.0 0.00 0.00 0.00 1 1012.5
20260506235704 6 76 0.0 0.0 0.00 0.00 0.00 1 1012.5
20260506235505 6 76 0.0 0.0 0.00 0.00 0.00 1 1012.5
20260506235306 6 76 0.0 0.0 0.00 0.00 0.00 1 1012.5
20260506235104 6 76 0.0 0.0 0.00 0.00 0.00 1 1012.4
20260506234904 6 76 0.0 0.0 0.00 0.00 0.00 1 1012.5
20260506234704 6 76 0.0 0.0 0.00 0.00 0.00 1 1012.5
20260506234504 6 76 0.0 0.0 0.00 0.00 0.00 1 1012.5
20260506234304 6 76 0.0 0.0 0.00 0.00 0.00 1 1012.5
20260506234104 6 76 0.0 0.0 0.00 0.00 0.00 1 1012.5
20260506233904 6 76 0.0 0.0 0.00 0.00 0.00 1 1012.5
20260506233705 6 76 0.0 0.0 0.00 0.00 0.00 1 1012.5
20260506233504 6 76 0.0 0.0 0.00 0.00 0.00 1 1012.4
20260506233304 6 76 0.0 0.0 0.00 0.00 0.00 1 1012.4
20260506233103 6 76 0.0 0.0 0.00 0.00 0.00 1 1012.4
20260506232905 6 76 0.0 0.0 0.00 0.00 0.00 1 1012.4
20260506232703 6 76 0.0 0.0 0.00 0.00 0.00 1 1012.5
20260506232505 6 0 0.0 0.0 0.00 0.00 0.00 1 1012.4
20260506232306 6 0 0.0 0.0 0.00 0.00 0.00 1 1012.4
20260506232104 6 76 0.0 0.0 0.00 0.00 0.00 1 1012.4
20260506231904 6 76 0.0 0.0 0.00 0.00 0.00 1 1012.4
20260506231703 6 0 0.0 0.0 0.00 0.00 0.00 1 1012.4
20260506231504 6 0 0.0 0.0 0.00 0.00 0.00 1 1012.4
20260506231303 6 76 0.0 0.0 0.00 0.00 0.00 1 1012.4
20260506230903 6 76 0.0 0.0 0.00 0.00 0.00 1 1012.4
20260506230710 6 0 0.0 0.0 0.00 0.00 0.00 1 1012.4
20260506230504 6 0 0.0 0.0 0.00 0.00 0.00 1 1012.3
20260506230253 6 0 0.0 0.0 0.00 0.00 0.00 1 1012.2
20260506230050 6 0 0.0 0.0 0.00 0.00 0.00 1 1012.3
20260506225849 6 0 0.0 0.0 0.00 0.00 0.00 1 1012.3
20260506225649 6 0 0.0 0.0 0.00 0.00 0.00 1 1012.2
20260506225450 6 76 0.0 0.0 0.00 0.00 0.00 1 1012.3
20260506225248 6 0 0.0 0.0 0.00 0.00 0.00 1 1012.3
20260506225048 6 79 0.0 0.0 0.00 0.00 0.00 1 1012.3
20260506224849 6 76 0.0 0.0 0.00 0.00 0.00 1 1012.2
20260506224648 6 0 0.0 0.0 0.00 0.00 0.00 1 1012.3
20260506224450 6 76 0.0 0.0 0.00 0.00 0.00 1 1012.3
20260506224248 6 0 0.0 0.0 0.00 0.00 0.00 1 1012.3
20260506224049 6 79 0.0 0.0 0.00 0.00 0.00 1 1012.3
20260506223849 6 0 0.0 0.0 0.00 0.00 0.00 1 1012.3
20260506223648 6 76 0.0 0.0 0.00 0.00 0.00 1 1012.3
20260506223449 6 76 0.0 0.0 0.00 0.00 0.00 1 1012.2
20260506223248 6 76 0.0 0.0 0.00 0.00 0.00 1 1012.2
20260506223048 6 76 0.0 0.0 0.00 0.00 0.00 1 1012.2
20260506222848 6 76 0.0 0.0 0.00 0.00 0.00 1 1012.3
20260506222648 6 76 0.0 0.0 0.00 0.00 0.00 1 1012.3
20260506222447 6 73 0.0 0.0 0.00 0.00 0.00 1 1012.2
20260506222248 6 73 0.0 0.0 0.00 0.00 0.00 1 1012.2
20260506222044 7 73 0.0 0.0 0.00 0.00 0.00 1 1012.3
20260506221839 6 73 0.0 0.0 0.00 0.00 0.00 1 1012.2
20260506221636 7 73 0.0 0.0 0.00 0.00 0.00 1 1012.2
20260506221434 7 73 0.0 0.0 0.00 0.00 0.00 1 1012.2
20260506221232 7 73 0.0 0.0 0.00 0.00 0.00 1 1012.2
20260506221030 7 73 0.0 0.0 0.00 0.00 0.00 1 1012.1
20260506220831 7 59 0.0 0.0 0.00 0.00 0.00 1 1012.1
20260506220633 7 65 0.0 0.0 0.00 0.00 0.00 1 1012.1
20260506220410 7 62 0.0 0.0 0.00 0.00 0.00 1 1012.1
20260506220207 7 54 0.0 0.0 0.00 0.00 0.00 1 1012.2
20260506220018 7 0 0.0 0.0 0.00 0.00 0.00 1 1012.2
20260506215805 7 79 0.0 0.0 0.00 0.00 0.00 1 1012.1
20260506215605 7 79 0.0 0.0 0.00 0.00 0.00 1 1012.2
20260506215405 7 79 0.0 0.0 0.00 0.00 0.00 1 1012.2
20260506215206 7 62 0.0 0.0 0.00 0.00 0.00 1 1012.2
20260506215007 7 62 0.0 0.0 0.00 0.00 0.00 1 1012.2
20260506214805 7 69 0.0 0.0 0.00 0.00 0.00 1 1012.1
20260506214605 7 0 0.0 0.0 0.00 0.00 0.00 1 1012.1
20260506214405 7 78 0.0 0.0 0.00 0.00 0.00 1 1012.0
20260506214207 7 66 0.0 0.0 0.00 0.00 0.00 1 1012.1
20260506214006 7 0 0.0 0.0 0.00 0.00 0.00 1 1012.0
20260506213606 7 78 0.0 0.0 0.00 0.00 0.00 1 1012.0
20260506213406 7 73 0.0 0.0 0.00 0.00 0.00 1 1012.1
20260506213205 7 69 0.0 0.0 0.00 0.00 0.00 1 1012.1
20260506213008 7 69 0.0 0.0 0.00 0.00 0.00 1 1012.1
20260506212805 7 80 0.0 0.0 0.00 0.00 0.00 1 1012.1
20260506212605 7 73 0.0 0.0 0.00 0.00 0.00 1 1012.0
20260506212406 7 72 0.0 0.0 0.00 0.00 0.00 1 1012.0
20260506212205 7 62 0.0 0.0 0.00 0.00 0.00 1 1012.0
20260506212007 7 0 0.0 0.0 0.00 0.00 0.00 1 1012.0
20260506211806 7 0 0.0 0.0 0.00 0.00 0.00 2 1012.0
20260506211605 7 75 0.0 0.0 0.00 0.00 0.00 3 1012.0
20260506211405 7 75 0.0 0.0 0.00 0.00 0.00 4 1012.0
20260506211205 7 0 0.0 0.0 0.00 0.00 0.00 6 1012.0
20260506211005 7 0 0.0 0.0 0.00 0.00 0.00 6 1011.9
20260506210805 7 0 0.0 0.0 0.00 0.00 0.00 7 1012.0
20260506210605 7 82 0.0 0.0 0.00 0.00 0.00 8 1011.8
20260506210406 7 0 0.0 0.0 0.00 0.00 0.00 8 1011.9
20260506210205 7 0 0.0 0.0 0.00 0.00 0.00 8 1011.8
20260506210007 7 0 0.0 0.0 0.00 0.00 0.00 9 1011.9
20260506205807 7 0 0.0 0.0 0.00 0.00 0.00 8 1011.9
20260506205605 7 0 0.0 0.0 0.00 0.00 0.00 8 1011.9
20260506205406 7 0 0.0 0.0 0.00 0.00 0.00 8 1011.8
20260506205206 8 0 0.0 0.0 0.00 0.00 0.00 7 1011.9
20260506205007 8 80 0.0 0.0 0.00 0.00 0.00 7 1011.9
20260506204802 8 0 0.0 0.0 0.00 0.00 0.00 7 1011.9
20260506204606 8 78 0.0 0.0 0.00 0.00 0.00 7 1011.9
20260506204403 8 75 0.0 0.0 0.00 0.00 0.00 8 1011.8
20260506204206 8 63 0.0 0.0 0.00 0.00 0.00 8 1011.8
20260506204005 8 0 0.0 0.0 0.00 0.00 0.00 8 1011.7
20260506203805 8 76 0.0 0.0 0.00 0.00 0.00 9 1011.7
20260506203606 8 0 0.0 0.0 0.00 0.00 0.00 9 1011.7
20260506203405 8 76 0.0 0.0 0.00 0.00 0.00 9 1011.7
20260506203205 8 63 0.0 4.8 0.00 0.00 0.00 10 1011.6
20260506203006 8 68 0.0 4.8 0.00 0.00 0.00 10 1011.6
20260506202806 8 107 0.0 4.8 0.00 0.00 0.00 10 1011.7
20260506202607 8 73 0.0 4.8 0.00 0.00 0.00 10 1011.7
20260506202406 8 62 0.0 4.8 0.00 0.00 0.00 10 1011.6
20260506202205 8 55 0.0 0.0 0.00 0.00 0.00 11 1011.6
20260506202007 8 68 0.0 0.0 0.00 0.00 0.00 11 1011.6
20260506201806 8 44 0.0 0.0 0.00 0.00 0.00 11 1011.6
20260506201605 8 66 0.0 0.0 0.00 0.00 0.00 11 1011.6
20260506201405 8 0 0.0 0.0 0.00 0.00 0.00 11 1011.7
20260506201205 8 0 0.0 0.0 0.00 0.00 0.00 11 1011.7
20260506201005 8 69 0.0 0.0 0.00 0.00 0.00 11 1011.7
20260506200805 8 76 0.0 0.0 0.00 0.00 0.00 11 1011.7
20260506200606 8 66 0.0 0.0 0.00 0.00 0.00 12 1011.7
20260506200405 8 66 0.0 0.0 0.00 0.00 0.00 12 1011.6
20260506200204 8 80 0.0 0.0 0.00 0.00 0.00 12 1011.6
20260506200007 8 47 0.0 0.0 0.00 0.00 0.00 12 1011.5
20260506195806 8 54 0.0 0.0 0.00 0.00 0.00 13 1011.5
20260506195606 8 38 0.0 4.8 0.00 0.00 0.00 14 1011.5
20260506195406 8 72 0.0 4.8 0.00 0.00 0.00 15 1011.5
20260506195206 8 68 0.0 4.8 0.00 0.00 0.00 15 1011.5
20260506195007 8 0 0.0 4.8 0.00 0.00 0.00 15 1011.5
20260506194805 8 69 0.0 4.8 0.00 0.00 0.00 16 1011.5
20260506194606 9 72 0.0 0.0 0.00 0.00 0.00 16 1011.5
20260506194405 9 63 0.0 1.6 0.00 0.00 0.00 17 1011.4
20260506194206 9 0 0.0 1.6 0.00 0.00 0.00 17 1011.4
20260506194005 9 0 0.0 1.6 0.00 0.00 0.00 18 1011.4
20260506193805 9 78 0.0 1.6 0.00 0.00 0.00 18 1011.3
20260506193605 9 65 0.0 1.6 0.00 0.00 0.00 18 1011.3
20260506193405 9 63 0.0 0.0 0.00 0.00 0.00 18 1011.3
20260506193205 9 62 0.0 1.6 0.00 0.00 0.00 19 1011.3
20260506193008 9 0 0.0 1.6 0.00 0.00 0.00 19 1011.2
20260506192805 9 66 0.0 1.6 0.00 0.00 0.00 21 1011.2
20260506192605 9 0 0.0 1.6 0.00 0.00 0.00 22 1011.3
20260506192403 9 58 0.0 1.6 0.00 0.00 0.00 22 1011.2
20260506192202 10 0 0.0 1.6 0.00 0.00 0.00 23 1011.2
20260506192002 10 66 0.0 8.0 0.00 0.00 0.00 23 1011.1
20260506191803 10 58 0.0 8.0 0.00 0.00 0.00 24 1011.1
20260506191603 10 0 0.0 8.0 0.00 0.00 0.00 25 1011.0
20260506191403 10 0 0.0 8.0 0.00 0.00 0.00 28 1011.0
20260506191202 10 42 1.6 8.0 0.00 0.00 0.00 28 1011.0
20260506191003 10 0 0.0 1.6 0.00 0.00 0.00 28 1011.0
20260506190802 10 68 0.0 1.6 0.00 0.00 0.00 30 1011.0
20260506190602 10 49 0.0 3.2 0.00 0.00 0.00 32 1010.9
20260506190402 10 0 0.0 3.2 0.00 0.00 0.00 32 1010.9
20260506190203 10 63 0.0 3.2 0.00 0.00 0.00 32 1010.9
20260506190005 10 32 0.0 3.2 0.00 0.00 0.00 32 1010.8
20260506185803 10 54 0.0 3.2 0.00 0.00 0.00 34 1010.8
20260506185603 10 49 0.0 11.3 0.00 0.00 0.00 38 1010.8
20260506185403 10 66 0.0 11.3 0.00 0.00 0.00 38 1010.8
20260506185202 10 72 0.0 11.3 0.00 0.00 0.00 38 1010.8
20260506185002 10 73 0.0 16.1 0.00 0.00 0.00 40 1010.8
20260506184801 10 79 3.2 16.1 0.00 0.00 0.00 42 1010.8
20260506184602 10 71 1.6 16.1 0.00 0.00 0.00 43 1010.8
20260506184402 10 62 1.6 16.1 0.00 0.00 0.00 44 1010.7
20260506184203 10 55 4.8 16.1 0.00 0.00 0.00 45 1010.7
20260506184001 10 71 0.0 6.4 0.00 0.00 0.00 45 1010.8
20260506183802 10 37 1.6 6.4 0.00 0.00 0.00 46 1010.8
20260506183601 10 0 1.6 14.5 0.00 0.00 0.00 47 1010.8
20260506183402 10 56 1.6 14.5 0.00 0.00 0.00 48 1010.6
20260506183202 10 75 0.0 14.5 0.00 0.00 0.00 48 1010.7
20260506183005 11 71 0.0 14.5 0.00 0.00 0.00 50 1010.7
20260506182803 11 65 4.8 14.5 0.00 0.00 0.00 51 1010.6
20260506182602 11 30 4.8 14.5 0.00 0.00 0.00 52 1010.6
20260506182402 11 75 4.8 11.3 0.00 0.00 0.00 53 1010.6
20260506182203 11 37 3.2 11.3 0.00 0.00 0.00 55 1010.6
20260506182006 11 56 3.2 20.9 0.00 0.00 0.00 55 1010.6
20260506181806 11 66 3.2 20.9 0.00 0.00 0.00 58 1010.6
20260506181605 11 71 3.2 20.9 0.00 0.00 0.00 58 1010.5
20260506181407 11 71 9.7 20.9 0.00 0.00 0.00 58 1010.4
20260506181206 11 85 12.9 20.9 0.00 0.00 0.00 59 1010.5
20260506181007 11 63 1.6 16.1 0.00 0.00 0.00 60 1010.5
20260506180805 11 62 1.6 16.1 0.00 0.00 0.00 61 1010.4
20260506180602 11 72 3.2 16.1 0.00 0.00 0.00 61 1010.3
20260506180405 11 54 6.4 16.1 0.00 0.00 0.00 61 1010.3
20260506180206 11 35 8.0 14.5 0.00 0.00 0.00 61 1010.3
20260506180007 11 54 3.2 14.5 0.00 0.00 0.00 62 1010.4
20260506175806 11 68 1.6 8.0 0.00 0.00 0.00 62 1010.4
20260506175606 11 0 1.6 17.7 0.00 0.00 0.00 62 1010.3
20260506175405 11 0 1.6 17.7 0.00 0.00 0.00 62 1010.2
20260506175204 12 0 3.2 20.9 0.00 0.00 0.00 62 1010.2
20260506175006 12 62 1.6 20.9 0.00 0.00 0.00 63 1010.2
20260506174805 12 72 4.8 20.9 0.00 0.00 0.00 63 1010.1
20260506174605 12 39 1.6 20.9 0.00 0.00 0.00 63 1010.1
20260506174405 12 76 9.7 20.9 0.00 0.00 0.00 63 1010.1
20260506174206 12 73 3.2 14.5 0.00 0.00 0.00 63 1010.1
20260506174006 12 58 4.8 17.7 0.00 0.00 0.00 63 1010.0
20260506173810 12 58 3.2 17.7 0.00 0.00 0.00 63 1010.0
20260506173606 12 58 1.6 17.7 0.00 0.00 0.00 63 1010.0
20260506173404 12 0 0.0 17.7 0.00 0.00 0.00 63 1010.0
20260506173205 12 59 6.4 17.7 0.00 0.00 0.00 63 1010.0
20260506173008 12 79 8.0 14.5 0.00 0.00 0.00 63 1010.0
20260506172806 12 55 4.8 17.7 0.00 0.00 0.00 63 1009.9
20260506172605 12 72 3.2 17.7 0.00 0.00 0.00 63 1009.9
20260506172404 12 0 4.8 17.7 0.00 0.00 0.00 63 1009.9
20260506172207 12 75 4.8 17.7 0.00 0.00 0.00 63 1009.9
20260506172006 12 0 9.7 17.7 0.00 0.00 0.00 63 1009.9
20260506171804 12 0 6.4 17.7 0.00 0.00 0.00 63 1009.8
20260506171605 12 76 9.7 19.3 0.00 0.00 0.00 63 1009.8
20260506171405 12 0 6.4 19.3 0.00 0.00 0.00 63 1009.9
20260506171206 12 54 4.8 19.3 0.00 0.00 0.00 63 1009.9
20260506171006 12 0 1.6 19.3 0.00 0.00 0.00 63 1009.9
20260506170805 12 0 6.4 19.3 0.00 0.00 0.00 63 1009.8
20260506170605 12 66 1.6 19.3 0.00 0.00 0.00 63 1009.8
20260506170405 12 0 4.8 19.3 0.00 0.00 0.00 63 1009.8
20260506170205 12 0 6.4 19.3 0.00 0.00 0.00 63 1009.8
20260506170006 12 0 3.2 19.3 0.00 0.00 0.00 63 1009.7
20260506165805 12 82 6.4 24.1 0.00 0.00 0.00 63 1009.7
20260506165606 12 0 4.8 24.1 0.00 0.00 0.00 63 1009.7
20260506165405 12 63 4.8 24.1 0.00 0.00 0.00 63 1009.7
20260506165205 12 0 11.3 24.1 0.00 0.00 0.00 63 1009.6
20260506165006 12 0 17.7 24.1 0.00 0.00 0.00 63 1009.6
20260506164806 12 65 12.9 19.3 0.00 0.00 0.00 63 1009.7
20260506164604 12 55 9.7 19.3 0.00 0.00 0.00 62 1009.7
20260506164404 12 71 9.7 19.3 0.00 0.00 0.00 62 1009.6
20260506164206 13 0 4.8 19.3 0.00 0.00 0.00 62 1009.8
20260506164005 13 0 8.0 19.3 0.00 0.00 0.00 62 1009.7
20260506163805 13 62 11.3 20.9 0.00 0.00 0.00 62 1009.6
20260506163605 13 42 11.3 25.7 0.00 0.00 0.00 62 1009.7
20260506163405 13 63 9.7 25.7 0.00 0.00 0.00 62 1009.7
20260506163206 13 0 8.0 25.7 0.00 0.00 0.00 61 1009.7
20260506163007 13 114 11.3 25.7 0.00 0.00 0.00 62 1009.6
20260506162805 13 61 14.5 25.7 0.00 0.00 0.00 62 1009.6
20260506162605 13 68 8.0 20.9 0.00 0.00 0.00 62 1009.6
20260506162406 13 65 11.3 20.9 0.00 0.00 0.00 62 1009.7
20260506162205 13 0 9.7 20.9 0.00 0.00 0.00 62 1009.7
20260506162006 13 72 11.3 25.7 0.00 0.00 0.00 62 1009.7
20260506161805 13 0 14.5 25.7 0.00 0.00 0.00 62 1009.7
20260506161606 13 71 12.9 25.7 0.00 0.00 0.00 61 1009.6
20260506161406 13 0 11.3 25.7 0.00 0.00 0.00 62 1009.7
20260506161201 13 58 16.1 25.7 0.00 0.00 0.00 62 1009.7
20260506161007 13 68 14.5 25.7 0.00 0.00 0.00 62 1009.7
20260506160806 13 99 11.3 25.7 0.00 0.00 0.00 62 1009.6
20260506160605 13 0 6.4 20.9 0.00 0.00 0.00 62 1009.6
20260506160405 13 0 9.7 20.9 0.00 0.00 0.00 62 1009.6
20260506160205 13 0 11.3 20.9 0.00 0.00 0.00 62 1009.6
20260506160007 13 69 12.9 22.5 0.00 0.00 0.00 62 1009.6
20260506155806 13 0 8.0 24.1 0.00 0.00 0.00 62 1009.6
20260506155604 13 0 8.0 24.1 0.00 0.00 0.00 62 1009.6
20260506155405 13 79 12.9 24.1 0.00 0.00 0.00 62 1009.7
20260506155205 13 0 19.3 24.1 0.00 0.00 0.00 62 1009.6
20260506155006 13 0 16.1 24.1 0.00 0.00 0.00 62 1009.7
20260506154805 13 66 12.9 25.7 0.00 0.00 0.00 62 1009.7
20260506154606 13 76 8.0 25.7 0.00 0.00 0.00 62 1009.7
20260506154406 13 68 11.3 25.7 0.00 0.00 0.00 62 1009.6
20260506154206 13 114 12.9 25.7 0.00 0.00 0.00 62 1009.6
20260506154006 13 68 17.7 25.7 0.00 0.00 0.00 63 1009.6
20260506153805 13 72 14.5 25.7 0.00 0.00 0.00 63 1009.6
20260506153539 13 62 12.9 25.7 0.00 0.00 0.00 62 1009.6
20260506153337 13 79 9.7 22.5 0.00 0.00 0.00 62 1009.6
20260506153138 13 0 11.3 22.5 0.00 0.00 0.00 62 1009.6
20260506152937 13 107 9.7 25.7 0.00 0.00 0.00 63 1009.6
20260506152738 13 59 8.0 25.7 0.00 0.00 0.00 62 1009.6
20260506152539 13 0 9.7 25.7 0.00 0.00 0.00 62 1009.5
20260506152337 13 65 16.1 25.7 0.00 0.00 0.00 61 1009.6
20260506152137 13 0 19.3 25.7 0.00 0.00 0.00 62 1009.6
20260506151937 13 106 6.4 22.5 0.00 0.00 0.00 61 1009.5
20260506151737 14 68 4.8 22.5 0.00 0.00 0.00 62 1009.6
20260506151539 14 56 4.8 24.1 0.00 0.00 0.00 62 1009.5
20260506151338 14 72 12.9 24.1 0.00 0.00 0.00 62 1009.6
20260506151138 14 71 9.7 24.1 0.00 0.00 0.00 61 1009.6
20260506150937 14 0 4.8 24.1 0.00 0.00 0.00 61 1009.6
20260506150737 14 66 12.9 25.7 0.00 0.00 0.00 60 1009.6
20260506150539 14 61 11.3 25.7 0.00 0.00 0.00 60 1009.5
20260506150336 14 0 11.3 25.7 0.00 0.00 0.00 61 1009.5
20260506150137 14 0 9.7 25.7 0.00 0.00 0.00 60 1009.5
20260506145937 14 0 12.9 25.7 0.00 0.00 0.00 62 1009.5
20260506145738 14 0 16.1 25.7 0.00 0.00 0.00 61 1009.5
20260506145539 14 82 12.9 25.7 0.00 0.00 0.00 62 1009.4
20260506145338 14 0 12.9 27.4 0.00 0.00 0.00 61 1009.4
20260506145140 14 79 16.1 30.6 0.00 0.00 0.00 61 1009.4
20260506144940 14 0 12.9 33.8 0.00 0.00 0.00 61 1009.5
20260506144740 14 71 12.9 33.8 0.00 0.00 0.00 61 1009.5
20260506144541 14 82 12.9 33.8 0.00 0.00 0.00 61 1009.5
20260506144340 14 51 20.9 33.8 0.00 0.00 0.00 62 1009.5
20260506144139 14 92 22.5 33.8 0.00 0.00 0.00 62 1009.4
20260506143939 13 79 14.5 27.4 0.00 0.00 0.00 62 1009.5
20260506143740 13 71 14.5 27.4 0.00 0.00 0.00 62 1009.3
20260506143541 13 0 14.5 27.4 0.00 0.00 0.00 62 1009.3
20260506143334 13 71 17.7 30.6 0.00 0.00 0.00 62 1009.3
20260506143131 13 80 17.7 30.6 0.00 0.00 0.00 63 1009.2
20260506142931 13 32 9.7 30.6 0.00 0.00 0.00 63 1009.2
20260506142731 13 0 11.3 30.6 0.00 0.00 0.00 63 1009.3
20260506142531 13 97 16.1 30.6 0.00 0.00 0.00 63 1009.3
20260506142331 13 72 8.0 25.7 0.00 0.00 0.00 63 1009.3
20260506142131 13 78 11.3 25.7 0.00 0.00 0.00 63 1009.4
20260506141931 13 0 8.0 24.1 0.00 0.00 0.00 63 1009.4
20260506141731 13 111 16.1 25.7 0.00 0.00 0.00 63 1009.4
20260506141531 13 0 11.3 25.7 0.00 0.00 0.00 63 1009.4
20260506141332 13 63 19.3 25.7 0.00 0.00 0.00 63 1009.3
20260506141131 13 0 12.9 25.7 0.00 0.00 0.00 63 1009.4
20260506140934 13 0 17.7 25.7 0.00 0.00 0.00 63 1009.3
20260506140735 13 103 9.7 24.1 0.00 0.00 0.00 63 1009.3
20260506140534 13 0 8.0 24.1 0.00 0.00 0.00 63 1009.4
20260506140329 13 66 11.3 24.1 0.00 0.00 0.00 63 1009.4
20260506140106 13 61 16.1 24.1 0.00 0.00 0.00 63 1009.3
20260506135905 13 61 14.5 24.1 0.00 0.00 0.00 63 1009.4
20260506135705 13 66 14.5 30.6 0.00 0.00 0.00 63 1009.4
20260506135507 13 102 9.7 30.6 0.00 0.00 0.00 63 1009.4
20260506135306 13 0 17.7 30.6 0.00 0.00 0.00 63 1009.3
20260506135105 13 0 16.1 30.6 0.00 0.00 0.00 62 1009.4
20260506134906 13 76 16.1 30.6 0.00 0.00 0.00 62 1009.4
20260506134705 13 75 11.3 27.4 0.00 0.00 0.00 62 1009.3
20260506134506 14 104 16.1 27.4 0.00 0.00 0.00 62 1009.3
20260506134305 14 76 11.3 27.4 0.00 0.00 0.00 62 1009.3
20260506134105 14 69 9.7 27.4 0.00 0.00 0.00 62 1009.3
20260506133906 14 0 9.7 30.6 0.00 0.00 0.00 62 1009.3
20260506133705 14 0 14.5 30.6 0.00 0.00 0.00 62 1009.2
20260506133505 14 0 12.9 33.8 0.00 0.00 0.00 62 1009.2
20260506133306 14 63 14.5 37.0 0.00 0.00 0.00 62 1009.2
20260506133105 14 0 24.1 37.0 0.00 0.00 0.00 62 1009.2
20260506132906 14 75 20.9 37.0 0.00 0.00 0.00 62 1009.2
20260506132706 14 0 25.7 37.0 0.00 0.00 0.00 62 1009.1
20260506132505 14 58 20.9 37.0 0.00 0.00 0.00 62 1009.1
20260506132307 14 0 9.7 29.0 0.00 0.00 0.00 62 1009.1
20260506132105 14 59 17.7 29.0 0.00 0.00 0.00 62 1009.1
20260506131835 14 66 14.5 30.6 0.00 0.00 0.00 62 1009.1
20260506131635 14 0 16.1 30.6 0.00 0.00 0.00 62 1009.1
20260506131434 14 0 17.7 30.6 0.00 0.00 0.00 62 1009.1
20260506131235 14 72 12.9 30.6 0.00 0.00 0.00 62 1009.2
20260506131035 14 68 16.1 30.6 0.00 0.00 0.00 62 1009.2
20260506130835 14 54 16.1 30.6 0.00 0.00 0.00 62 1009.2
20260506130634 14 78 16.1 30.6 0.00 0.00 0.00 62 1009.1
20260506130434 14 0 16.1 30.6 0.00 0.00 0.00 62 1009.2
20260506130234 14 0 19.3 30.6 0.00 0.00 0.00 62 1009.3
20260506130034 14 71 20.9 30.6 0.00 0.00 0.00 62 1009.1
20260506125834 14 66 16.1 30.6 0.00 0.00 0.00 62 1009.1
20260506125635 14 93 19.3 30.6 0.00 0.00 0.00 62 1009.1
20260506125435 14 92 17.7 30.6 0.00 0.00 0.00 62 1009.0
20260506125234 14 65 19.3 30.6 0.00 0.00 0.00 62 1009.1
20260506125034 14 0 20.9 30.6 0.00 0.00 0.00 62 1009.0
20260506124834 14 0 20.9 30.6 0.00 0.00 0.00 62 1009.1
20260506124635 14 0 19.3 32.2 0.00 0.00 0.00 62 1009.0
20260506124435 14 0 17.7 32.2 0.00 0.00 0.00 62 1009.1
20260506124234 13 59 19.3 32.2 0.00 0.00 0.00 62 1009.1
20260506124035 13 100 19.3 32.2 0.00 0.00 0.00 62 1009.0
20260506123833 13 93 29.0 32.2 0.00 0.00 0.00 62 1009.0
20260506123635 13 72 25.7 32.2 0.00 0.00 0.00 62 1008.9
20260506123433 13 54 27.4 32.2 0.00 0.00 0.00 62 1008.9
20260506123234 13 75 24.1 29.0 0.00 0.00 0.00 62 1008.9
20260506123034 13 79 22.5 29.0 0.00 0.00 0.00 62 1008.9
20260506122834 13 107 20.9 27.4 0.00 0.00 0.00 62 1008.9
20260506122634 13 79 20.9 27.4 0.00 0.00 0.00 62 1008.9
20260506122433 14 96 14.5 27.4 0.00 0.00 0.00 62 1008.8
20260506122234 14 0 12.9 27.4 0.00 0.00 0.00 63 1008.8
20260506122033 14 0 16.1 27.4 0.00 0.00 0.00 62 1009.0
20260506121833 14 0 16.1 27.4 0.00 0.00 0.00 62 1008.8
20260506121633 14 59 14.5 27.4 0.00 0.00 0.00 62 1008.9
20260506121433 14 75 9.7 32.2 0.00 0.00 0.00 62 1009.0
20260506121233 14 0 11.3 32.2 0.00 0.00 0.00 62 1008.9
20260506121033 14 66 16.1 32.2 0.00 0.00 0.00 62 1008.9
20260506120833 14 0 19.3 32.2 0.00 0.00 0.00 62 1009.0
20260506120633 14 69 22.5 32.2 0.00 0.00 0.00 62 1008.9
20260506120433 14 0 20.9 27.4 0.00 0.00 0.00 62 1008.9
20260506120233 14 0 16.1 27.4 0.00 0.00 0.00 62 1008.9
20260506120034 14 0 16.1 27.4 0.00 0.00 0.00 62 1008.9
20260506115833 14 51 14.5 27.4 0.00 0.00 0.00 62 1008.8
20260506115633 14 55 16.1 27.4 0.00 0.00 0.00 62 1008.8
20260506115434 14 59 20.9 27.4 0.00 0.00 0.00 62 1008.8
20260506115232 14 111 20.9 27.4 0.00 0.00 0.00 62 1008.8
20260506115033 13 0 12.9 27.4 0.00 0.00 0.00 62 1008.8
20260506114832 13 71 16.1 27.4 0.00 0.00 0.00 62 1008.8
20260506114632 13 0 19.3 29.0 0.00 0.00 0.00 62 1009.0
20260506114433 13 62 19.3 30.6 0.00 0.00 0.00 62 1008.8
20260506114232 13 65 19.3 32.2 0.00 0.00 0.00 62 1008.8
20260506114033 14 51 20.9 32.2 0.00 0.00 0.00 63 1008.7
20260506113832 14 0 25.7 32.2 0.00 0.00 0.00 62 1008.8
20260506113632 14 0 24.1 32.2 0.00 0.00 0.00 62 1008.7
20260506113432 14 86 25.7 32.2 0.00 0.00 0.00 62 1008.7
20260506113232 14 0 24.1 30.6 0.00 0.00 0.00 62 1008.8
20260506113032 15 49 25.7 30.6 0.00 0.00 0.00 62 1008.8
20260506112833 15 0 17.7 29.0 0.00 0.00 0.00 62 1008.8
20260506112633 15 0 17.7 29.0 0.00 0.00 0.00 62 1008.7
20260506112432 15 71 17.7 29.0 0.00 0.00 0.00 62 1008.8
20260506112232 15 76 9.7 29.0 0.00 0.00 0.00 62 1008.7
20260506112033 15 56 20.9 30.6 0.00 0.00 0.00 62 1008.8
20260506111832 15 31 14.5 30.6 0.00 0.00 0.00 62 1008.7
20260506111632 15 69 19.3 30.6 0.00 0.00 0.00 62 1008.7
20260506111432 15 52 19.3 30.6 0.00 0.00 0.00 62 1008.7
20260506111232 15 0 19.3 30.6 0.00 0.00 0.00 62 1008.7
20260506111032 15 0 19.3 30.6 0.00 0.00 0.00 62 1008.6
20260506110832 15 68 17.7 24.1 0.00 0.00 0.00 62 1008.7
20260506110632 15 72 12.9 25.7 0.00 0.00 0.00 62 1008.7
20260506110430 15 0 11.3 25.7 0.00 0.00 0.00 62 1008.6
20260506110233 15 66 6.4 25.7 0.00 0.00 0.00 62 1008.7
20260506110033 15 71 8.0 25.7 0.00 0.00 0.00 62 1008.7
20260506105831 15 69 16.1 25.7 0.00 0.00 0.00 62 1008.7
20260506105632 14 61 16.1 25.7 0.00 0.00 0.00 62 1008.7
20260506105435 14 69 17.7 25.7 0.00 0.00 0.00 61 1008.6
20260506105234 14 62 11.3 24.1 0.00 0.00 0.00 62 1008.7
20260506105034 14 62 14.5 24.1 0.00 0.00 0.00 61 1008.7
20260506104833 14 71 14.5 24.1 0.00 0.00 0.00 61 1008.7
20260506104606 14 61 14.5 24.1 0.00 0.00 0.00 61 1008.7
20260506104404 14 0 14.5 24.1 0.00 0.00 0.00 60 1008.7
20260506104204 14 78 16.1 24.1 0.00 0.00 0.00 60 1008.7
20260506104006 14 73 9.7 20.9 0.00 0.00 0.00 59 1008.8
20260506103802 14 56 12.9 20.9 0.00 0.00 0.00 60 1008.8
20260506103553 14 73 8.0 22.5 0.00 0.00 0.00 60 1008.7
20260506103141 13 0 8.0 22.5 0.00 0.00 0.00 61 1008.6
20260506102933 13 54 4.8 22.5 0.00 0.00 0.00 61 1008.7
20260506102732 13 79 8.0 22.5 0.00 0.00 0.00 61 1008.7
20260506102531 13 54 12.9 25.7 0.00 0.00 0.00 61 1008.7
20260506102331 13 73 11.3 25.7 0.00 0.00 0.00 61 1008.7
20260506102131 13 44 12.9 25.7 0.00 0.00 0.00 61 1008.7
20260506101932 13 56 8.0 25.7 0.00 0.00 0.00 61 1008.6
20260506101730 13 0 14.5 25.7 0.00 0.00 0.00 61 1008.7
20260506101531 13 78 9.7 22.5 0.00 0.00 0.00 61 1008.6
20260506101331 13 79 8.0 22.5 0.00 0.00 0.00 61 1008.5
20260506101131 13 0 9.7 22.5 0.00 0.00 0.00 60 1008.6
20260506100931 13 71 6.4 24.1 0.00 0.00 0.00 61 1008.6
20260506100731 13 0 11.3 24.1 0.00 0.00 0.00 61 1008.6
20260506100531 13 54 11.3 24.1 0.00 0.00 0.00 60 1008.5
20260506100331 13 68 12.9 24.1 0.00 0.00 0.00 60 1008.5
20260506100130 13 109 12.9 24.1 0.00 0.00 0.00 60 1008.5
20260506095931 13 54 12.9 20.9 0.00 0.00 0.00 60 1008.5
20260506095730 13 55 12.9 20.9 0.00 0.00 0.00 60 1008.5
20260506095532 13 55 9.7 20.9 0.00 0.00 0.00 59 1008.5
20260506095330 13 89 8.0 20.9 0.00 0.00 0.00 58 1008.5
20260506095130 13 68 9.7 20.9 0.00 0.00 0.00 57 1008.5
20260506094930 13 80 3.2 19.3 0.00 0.00 0.00 58 1008.5
20260506094731 13 61 8.0 19.3 0.00 0.00 0.00 57 1008.4
20260506094532 13 72 4.8 25.7 0.00 0.00 0.00 57 1008.5
20260506094330 13 0 12.9 25.7 0.00 0.00 0.00 58 1008.4
20260506094130 13 73 12.9 25.7 0.00 0.00 0.00 57 1008.4
20260506093931 13 79 11.3 25.7 0.00 0.00 0.00 57 1008.4
20260506093731 13 0 16.1 25.7 0.00 0.00 0.00 57 1008.4
20260506093531 13 0 16.1 24.1 0.00 0.00 0.00 56 1008.4
20260506093330 13 106 3.2 19.3 0.00 0.00 0.00 55 1008.4
20260506093130 13 58 1.6 19.3 0.00 0.00 0.00 55 1008.4
20260506092930 13 59 3.2 19.3 0.00 0.00 0.00 55 1008.4
20260506092730 13 61 4.8 20.9 0.00 0.00 0.00 53 1008.4
20260506092531 13 0 14.5 20.9 0.00 0.00 0.00 49 1008.4
20260506092330 13 58 8.0 20.9 0.00 0.00 0.00 50 1008.4
20260506092130 13 0 8.0 20.9 0.00 0.00 0.00 50 1008.5
20260506091907 13 0 9.7 20.9 0.00 0.00 0.00 48 1008.5
20260506091705 13 48 3.2 20.9 0.00 0.00 0.00 48 1008.4
20260506091506 13 104 11.3 20.9 0.00 0.00 0.00 44 1008.4
20260506091305 13 71 9.7 20.9 0.00 0.00 0.00 41 1008.4
20260506091106 13 0 4.8 24.1 0.00 0.00 0.00 38 1008.4
20260506090832 13 0 4.8 24.1 0.00 0.00 0.00 36 1008.4
20260506090631 13 0 9.7 24.1 0.00 0.00 0.00 36 1008.4
20260506090431 13 0 6.4 24.1 0.00 0.00 0.00 34 1008.4
20260506090231 13 0 8.0 25.7 0.00 0.00 0.00 36 1008.5
20260506090032 13 75 3.2 25.7 0.00 0.00 0.00 36 1008.4
20260506085829 13 0 6.4 25.7 0.00 0.00 0.00 36 1008.4
20260506085630 13 76 9.7 25.7 0.00 0.00 0.00 34 1008.3
20260506085430 13 71 14.5 25.7 0.00 0.00 0.00 34 1008.4
20260506085228 13 83 9.7 19.3 0.00 0.00 0.00 36 1008.4
20260506085029 13 65 6.4 17.7 0.00 0.00 0.00 35 1008.4
20260506084828 13 71 8.0 17.7 0.00 0.00 0.00 30 1008.4
20260506084630 13 62 4.8 20.9 0.00 0.00 0.00 29 1008.4
20260506084429 12 0 4.8 22.5 0.00 0.00 0.00 32 1008.4
20260506084228 12 66 8.0 22.5 0.00 0.00 0.00 30 1008.4
20260506084029 12 51 6.4 24.1 0.00 0.00 0.00 30 1008.4
20260506083829 12 127 11.3 24.1 0.00 0.00 0.00 29 1008.4
20260506083629 12 0 9.7 24.1 0.00 0.00 0.00 29 1008.4
20260506083428 12 0 11.3 24.1 0.00 0.00 0.00 26 1008.3
20260506083229 12 65 11.3 24.1 0.00 0.00 0.00 26 1008.4
20260506083029 12 0 3.2 22.5 0.00 0.00 0.00 24 1008.4
20260506082828 12 62 8.0 25.7 0.00 0.00 0.00 24 1008.4
20260506082628 12 62 11.3 25.7 0.00 0.00 0.00 25 1008.3
20260506082429 12 93 14.5 25.7 0.00 0.00 0.00 24 1008.3
20260506082228 12 0 14.5 25.7 0.00 0.00 0.00 23 1008.3
20260506082028 12 75 19.3 25.7 0.00 0.00 0.00 20 1008.3
20260506081828 12 61 3.2 22.5 0.00 0.00 0.00 17 1008.2
20260506081628 12 59 4.8 22.5 0.00 0.00 0.00 15 1008.3
20260506081429 12 45 9.7 22.5 0.00 0.00 0.00 11 1008.3
20260506081228 12 76 9.7 22.5 0.00 0.00 0.00 8 1008.3
20260506081028 12 54 11.3 22.5 0.00 0.00 0.00 6 1008.4
20260506080820 12 0 3.2 22.5 0.00 0.00 0.00 3 1008.3
20260506080615 12 65 6.4 22.5 0.00 0.00 0.00 6 1008.3
20260506080408 12 73 0.0 22.5 0.00 0.00 0.00 5 1008.3
20260506080206 12 65 9.7 22.5 0.00 0.00 0.00 5 1008.3
20260506073405 11 0 4.8 20.9 0.00 0.00 0.00 1 1008.2
20260506073205 11 0 0.0 20.9 0.00 0.00 0.00 1 1008.2
20260506073007 11 48 8.0 20.9 0.00 0.00 0.00 1 1008.2
20260506072805 11 78 12.9 20.9 0.00 0.00 0.00 1 1008.3
20260506072605 11 58 6.4 20.9 0.00 0.00 0.00 1 1008.2
20260506072406 11 0 3.2 19.3 0.00 0.00 0.00 1 1008.2
20260506072205 11 59 3.2 19.3 0.00 0.00 0.00 1 1008.2
20260506072005 11 61 3.2 19.3 0.00 0.00 0.00 1 1008.2
20260506071803 11 0 6.4 19.3 0.00 0.00 0.00 1 1008.2
20260506071604 11 0 4.8 19.3 0.00 0.00 0.00 1 1008.2
20260506071403 11 111 3.2 19.3 0.00 0.00 0.00 1 1008.2
20260506071205 11 75 3.2 19.3 0.00 0.00 0.00 1 1008.2
20260506071004 11 71 6.4 20.9 0.00 0.00 0.00 1 1008.2
20260506070804 11 0 8.0 20.9 0.00 0.00 0.00 1 1008.1
20260506070605 11 55 11.3 20.9 0.00 0.00 0.00 1 1008.3
20260506070404 11 0 8.0 20.9 0.00 0.00 0.00 1 1008.3
20260506070205 11 51 11.3 20.9 0.00 0.00 0.00 1 1008.2